EN

Hourly Weather Lady

Today, 25 July, Sunday

Time Temperature Precipitation Wind Pressure Humidity
00:00 +18°C° 0 mm 2 mps 761 mmHg 76%
01:00 +18°C° 0 mm 2 mps 761 mmHg 76%
02:00 +18°C° 0 mm 2 mps 761 mmHg 76%
03:00 +18°C° 0 mm 2 mps 761 mmHg 76%
04:00 +18°C° 0 mm 2 mps 761 mmHg 76%
05:00 +19°C° 0 mm 2 mps 761 mmHg 73%
06:00 +20°C° 0 mm 2 mps 761 mmHg 70%
07:00 +21°C° 0 mm 3 mps 761 mmHg 67%
08:00 +24°C° 0 mm 3 mps 761 mmHg 62%
09:00 +26°C° 0 mm 4 mps 761 mmHg 57%
10:00 +27°C° 0 mm 4 mps 760 mmHg 51%
11:00 +28°C° 0 mm 5 mps 760 mmHg 49%
12:00 +29°C° 0 mm 5 mps 760 mmHg 46%
13:00 +30°C° 0 mm 5 mps 760 mmHg 44%
14:00 +30°C° 0 mm 5 mps 760 mmHg 46%
15:00 +29°C° 0 mm 4 mps 760 mmHg 48%
16:00 +29°C° 0 mm 4 mps 759 mmHg 50%
17:00 +28°C° 0 mm 3 mps 759 mmHg 55%
18:00 +27°C° 0 mm 2 mps 759 mmHg 61%
19:00 +26°C° 0 mm 2 mps 759 mmHg 66%
20:00 +24°C° 0 mm 2 mps 760 mmHg 69%
21:00 +23°C° 0 mm 2 mps 760 mmHg 71%
22:00 +21°C° 0 mm 2 mps 760 mmHg 74%
23:00 +20°C° 0 mm 2 mps 760 mmHg 75%

Tomorrow, 26 July, Monday

Time Temperature Precipitation Wind Pressure Humidity
00:00 +20°C° 0 mm 2 mps 760 mmHg 75%
01:00 +19°C° 0 mm 2 mps 760 mmHg 76%
02:00 +19°C° 0 mm 2 mps 760 mmHg 77%
03:00 +19°C° 0 mm 2 mps 760 mmHg 77%
04:00 +19°C° 0 mm 2 mps 760 mmHg 78%
05:00 +20°C° 0.1 mm 2 mps 760 mmHg 74%
06:00 +23°C° 0.1 mm 2 mps 760 mmHg 70%
07:00 +24°C° 0.1 mm 2 mps 760 mmHg 66%
08:00 +25°C° 0 mm 3 mps 760 mmHg 62%
09:00 +26°C° 0 mm 4 mps 760 mmHg 59%
10:00 +27°C° 0 mm 5 mps 760 mmHg 56%
11:00 +27°C° 0 mm 4 mps 760 mmHg 56%
12:00 +27°C° 0 mm 4 mps 760 mmHg 56%
13:00 +27°C° 0 mm 4 mps 760 mmHg 57%
14:00 +27°C° 0 mm 4 mps 759 mmHg 59%
15:00 +26°C° 0 mm 4 mps 759 mmHg 62%
16:00 +25°C° 0 mm 4 mps 759 mmHg 65%
17:00 +25°C° 0.1 mm 4 mps 759 mmHg 68%
18:00 +23°C° 0.1 mm 4 mps 759 mmHg 71%
19:00 +23°C° 0.1 mm 4 mps 759 mmHg 75%
20:00 +22°C° 0 mm 3 mps 759 mmHg 80%
21:00 +21°C° 0 mm 3 mps 759 mmHg 85%
22:00 +20°C° 0 mm 2 mps 758 mmHg 91%
23:00 +19°C° 0.1 mm 2 mps 758 mmHg 92%

Day after tomorrow, 27 July, Tuesday

Time Temperature Precipitation Wind Pressure Humidity
00:00 +19°C° 0.1 mm 2 mps 758 mmHg 94%
01:00 +19°C° 0.1 mm 2 mps 758 mmHg 96%
02:00 +19°C° 0 mm 2 mps 758 mmHg 96%
03:00 +19°C° 0 mm 1 mps 758 mmHg 96%
04:00 +19°C° 0 mm 1 mps 758 mmHg 97%
05:00 +20°C° 0 mm 1 mps 758 mmHg 93%
06:00 +22°C° 0 mm 1 mps 758 mmHg 89%
07:00 +23°C° 0 mm 1 mps 758 mmHg 85%
08:00 +24°C° 0.2 mm 2 mps 758 mmHg 79%
09:00 +26°C° 0.2 mm 2 mps 758 mmHg 73%
10:00 +27°C° 0.2 mm 3 mps 757 mmHg 68%
11:00 +28°C° 0.5 mm 3 mps 757 mmHg 63%
12:00 +28°C° 0.5 mm 3 mps 757 mmHg 59%
13:00 +29°C° 0.5 mm 3 mps 757 mmHg 54%
14:00 +28°C° 0.3 mm 2 mps 757 mmHg 59%
15:00 +27°C° 0.3 mm 2 mps 758 mmHg 64%
16:00 +26°C° 0.3 mm 2 mps 758 mmHg 69%
17:00 +25°C° 0.8 mm 2 mps 758 mmHg 73%
18:00 +24°C° 0.8 mm 2 mps 758 mmHg 77%
19:00 +23°C° 0.8 mm 2 mps 758 mmHg 81%
20:00 +21°C° 0.1 mm 2 mps 758 mmHg 82%
21:00 +21°C° 0.1 mm 1 mps 759 mmHg 83%
22:00 +21°C° 0.1 mm 1 mps 759 mmHg 84%
23:00 +19°C° 0 mm 2 mps 759 mmHg 85%

28 July, Wednesday

Time Temperature Precipitation Wind Pressure Humidity
00:00 +19°C° 0 mm 2 mps 759 mmHg 85%
01:00 +19°C° 0 mm 2 mps 759 mmHg 86%
02:00 +19°C° 0 mm 2 mps 758 mmHg 87%
03:00 +18°C° 0 mm 3 mps 758 mmHg 89%
04:00 +18°C° 0 mm 3 mps 758 mmHg 90%
05:00 +20°C° 0 mm 3 mps 758 mmHg 85%
06:00 +21°C° 0 mm 3 mps 758 mmHg 79%
07:00 +22°C° 0 mm 4 mps 758 mmHg 73%
08:00 +25°C° 0 mm 4 mps 758 mmHg 64%
09:00 +27°C° 0 mm 4 mps 758 mmHg 55%
10:00 +28°C° 0 mm 4 mps 758 mmHg 46%
11:00 +29°C° 0 mm 5 mps 758 mmHg 43%
12:00 +30°C° 0 mm 5 mps 758 mmHg 39%
13:00 +32°C° 0 mm 5 mps 758 mmHg 36%
14:00 +30°C° 0 mm 5 mps 758 mmHg 39%
15:00 +29°C° 0 mm 4 mps 758 mmHg 43%
16:00 +28°C° 0 mm 4 mps 758 mmHg 47%
17:00 +26°C° 0 mm 4 mps 758 mmHg 54%
18:00 +25°C° 0 mm 3 mps 758 mmHg 62%
19:00 +22°C° 0 mm 3 mps 759 mmHg 69%
20:00 +21°C° 0.1 mm 3 mps 759 mmHg 75%
21:00 +20°C° 0.1 mm 3 mps 759 mmHg 80%
22:00 +19°C° 0.1 mm 3 mps 759 mmHg 86%
23:00 +18°C° 0 mm 3 mps 759 mmHg 89%

29 July, Thursday

Time Temperature Precipitation Wind Pressure Humidity
00:00 +18°C° 0 mm 3 mps 759 mmHg 92%
01:00 +17°C° 0 mm 3 mps 759 mmHg 95%
02:00 +17°C° 0 mm 3 mps 759 mmHg 96%
03:00 +16°C° 0 mm 3 mps 759 mmHg 96%
04:00 +16°C° 0 mm 3 mps 759 mmHg 96%
05:00 +18°C° 0 mm 3 mps 759 mmHg 90%
06:00 +19°C° 0 mm 3 mps 759 mmHg 84%
07:00 +21°C° 0 mm 3 mps 759 mmHg 78%
08:00 +22°C° 0 mm 3 mps 759 mmHg 69%
09:00 +25°C° 0 mm 3 mps 759 mmHg 60%
10:00 +27°C° 0 mm 4 mps 759 mmHg 52%
11:00 +28°C° 0 mm 4 mps 759 mmHg 48%
12:00 +29°C° 0 mm 4 mps 758 mmHg 43%
13:00 +30°C° 0 mm 5 mps 758 mmHg 39%
14:00 +30°C° 0 mm 6 mps 758 mmHg 40%
15:00 +30°C° 0 mm 6 mps 758 mmHg 41%
16:00 +29°C° 0 mm 7 mps 758 mmHg 42%
17:00 +28°C° 0 mm 5 mps 757 mmHg 47%
18:00 +27°C° 0 mm 4 mps 757 mmHg 53%
19:00 +25°C° 0 mm 2 mps 757 mmHg 58%
20:00 +24°C° 0 mm 3 mps 758 mmHg 63%
21:00 +22°C° 0 mm 3 mps 758 mmHg 68%
22:00 +21°C° 0 mm 3 mps 758 mmHg 73%
23:00 +21°C° 0 mm 3 mps 758 mmHg 77%

30 July, Friday

Time Temperature Precipitation Wind Pressure Humidity
00:00 +20°C° 0 mm 3 mps 758 mmHg 81%
01:00 +19°C° 0 mm 3 mps 758 mmHg 86%
02:00 +18°C° 0 mm 3 mps 758 mmHg 88%
03:00 +18°C° 0 mm 3 mps 758 mmHg 89%
04:00 +17°C° 0 mm 2 mps 759 mmHg 91%
05:00 +19°C° 0 mm 3 mps 759 mmHg 82%
06:00 +20°C° 0 mm 3 mps 759 mmHg 72%
07:00 +22°C° 0 mm 3 mps 759 mmHg 63%
08:00 +24°C° 0 mm 3 mps 759 mmHg 55%
09:00 +25°C° 0 mm 3 mps 759 mmHg 47%
10:00 +27°C° 0 mm 4 mps 759 mmHg 39%
11:00 +27°C° 0 mm 4 mps 758 mmHg 37%
12:00 +28°C° 0 mm 4 mps 758 mmHg 34%
13:00 +29°C° 0 mm 4 mps 757 mmHg 32%
14:00 +29°C° 0 mm 4 mps 757 mmHg 32%
15:00 +29°C° 0 mm 4 mps 757 mmHg 33%
16:00 +29°C° 0 mm 5 mps 757 mmHg 33%
17:00 +27°C° 0 mm 4 mps 757 mmHg 43%
18:00 +23°C° 0 mm 4 mps 757 mmHg 52%
19:00 +21°C° 0 mm 3 mps 757 mmHg 62%
20:00 +20°C° 0 mm 3 mps 757 mmHg 66%
21:00 +19°C° 0 mm 2 mps 757 mmHg 70%
22:00 +19°C° 0 mm 1 mps 758 mmHg 74%
23:00 +17°C° 0 mm 2 mps 758 mmHg 76%
Show more